Wind_Speed
31 30 30 28 28 27 27 30 31 30 29 28 27 29 30 30 29 27 26 25 24 23 22 21 19 18 17 16 15 12 11 11 12 12 10 10 10 10 12 13 13 13
32 31 31 28 28 30 31 31 32 32 32 31 30 29 30 30 29 27 26 26 25 24 23 22 20 19 19 17 16 13 10 9 11 11 11 10 11 11 11 13 13 14
32 31 32 30 29 32 31 29 31 33 31 31 31 30 30 29 28 28 27 26 25 25 24 23 21 21 20 19 18 15 11 9 11 12 11 11 11 11 11 12 12 13
33 32 32 30 29 29 28 27 30 31 30 30 31 31 30 29 28 27 27 26 26 25 25 24 23 22 21 20 18 15 11 10 11 11 11 11 11 11 11 11 13 14
35 33 32 30 27 26 27 28 29 30 31 31 31 31 30 30 28 27 27 26 26 26 26 26 24 23 22 20 18 14 11 11 11 10 11 12 12 12 11 11 14 15
34 34 33 31 28 27 30 31 31 30 31 31 31 31 31 30 29 28 27 27 26 25 25 25 25 25 24 22 19 15 11 12 12 11 12 14 14 14 12 12 15 17
34 34 34 31 28 29 31 31 31 32 32 30 31 32 31 30 30 29 28 27 26 25 24 25 25 25 25 23 21 17 13 12 12 12 13 14 14 15 14 13 13 15
33 33 33 31 28 29 30 30 30 32 33 31 31 31 32 31 30 30 29 28 27 26 26 25 25 25 25 24 23 21 17 14 13 13 13 14 15 15 15 14 13 13
31 30 31 31 29 29 29 29 29 30 32 33 31 29 30 32 31 30 30 29 28 27 27 26 25 25 25 24 24 24 22 20 18 17 16 16 17 17 17 16 15 14
30 30 29 30 30 29 28 28 27 26 30 33 31 27 27 31 32 30 30 29 28 28 28 28 27 26 25 25 25 25 24 23 22 22 20 20 21 21 19 18 17 17
30 30 29 30 30 29 28 28 26 24 27 31 30 27 26 29 31 31 30 30 29 29 29 29 28 28 27 26 25 25 25 24 23 24 24 24 25 24 23 21 21 20
31 30 30 31 31 30 28 28 27 25 25 28 29 28 26 26 28 30 31 31 31 30 30 30 29 29 29 28 26 25 25 25 24 25 26 26 26 25 24 24 24 23
32 32 32 31 31 31 28 27 27 26 26 27 28 28 27 26 26 27 30 32 32 31 31 31 30 30 30 29 28 27 27 27 26 26 26 26 27 25 23 23 23 23
35 34 33 31 31 32 31 28 28 28 28 28 29 28 28 27 25 25 28 30 31 31 30 30 30 31 30 30 30 29 28 28 27 27 25 25 25 25 24 23 23 21
38 35 33 32 32 34 35 31 29 29 29 29 30 31 29 27 26 24 25 26 27 28 29 28 29 30 31 31 30 30 29 27 26 26 25 24 24 24 23 24 24 22
40 38 35 33 33 36 37 34 31 29 30 30 31 32 30 27 26 25 23 24 25 26 27 27 28 31 32 32 31 30 29 26 24 26 26 25 24 23 23 24 23 22
39 37 35 33 34 35 35 36 34 31 31 32 32 32 30 28 27 26 25 24 23 24 25 25 29 32 34 34 33 32 29 26 23 24 25 26 25 24 24 23 22 22
35 34 33 33 34 34 35 37 36 34 33 33 32 31 30 28 27 27 27 26 24 23 24 25 28 32 34 34 34 33 32 28 24 21 21 23 23 23 24 23 22 21
33 33 33 33 34 36 36 36 36 34 33 32 31 31 30 29 28 27 27 27 25 25 25 25 26 29 33 35 34 33 32 31 28 23 21 22 22 23 23 23 22 21
33 33 33 33 35 36 35 34 34 33 32 31 30 29 28 28 28 27 27 28 27 27 27 26 26 29 32 33 34 33 32 31 30 27 24 23 23 23 23 24 23 22
33 33 32 32 34 35 34 32 32 31 31 30 28 27 27 28 29 28 28 28 28 28 27 26 28 30 32 33 33 33 31 31 31 30 28 26 25 25 25 25 25 24
33 32 31 31 31 32 31 30 29 29 30 30 28 26 25 26 27 28 27 27 28 28 26 26 28 30 33 34 34 32 31 30 31 32 31 29 27 27 27 27 27 26
31 31 30 30 29 29 29 28 28 29 29 29 27 25 23 23 25 26 26 26 27 27 26 27 28 30 33 34 33 32 31 31 32 32 32 30 29 29 29 28 29 29
30 30 30 29 29 28 28 28 28 28 28 28 27 26 25 24 24 24 24 25 26 26 27 27 28 29 32 34 33 32 31 31 32 32 30 29 29 30 31 31 31 32
30 31 31 30 29 29 29 28 28 28 28 27 26 26 25 24 23 23 23 24 25 26 28 29 28 27 30 32 33 33 32 32 32 30 27 27 27 27 29 30 32 33
30 30 31 30 29 30 30 30 29 28 26 25 24 24 24 23 23 23 22 23 23 24 26 28 28 26 28 30 32 32 32 32 32 29 26 25 25 25 25 26 27 28
Wind_Direction
207 207 208 210 212 214 215 218 220 222 225 227 229 232 235 237 240 241 242 242 244 247 249 251 252 253 252 255 259 254 246 246 247 249 246 241 245 246 250 256 257 258
207 208 209 209 212 216 218 221 222 223 226 230 231 234 237 240 242 243 243 243 244 247 250 252 253 254 252 252 256 254 243 240 240 241 240 238 242 244 248 254 257 260
207 208 209 210 213 217 218 219 223 224 226 229 232 235 237 240 242 243 243 243 244 247 250 253 255 256 254 252 253 252 243 239 239 238 239 240 241 244 247 251 256 260
206 207 209 210 212 215 214 214 219 222 223 227 231 234 236 238 240 242 243 244 245 247 249 252 254 256 256 253 251 248 241 240 242 237 238 240 241 246 247 249 255 260
207 208 209 209 209 209 211 214 217 219 221 225 230 232 234 237 239 240 242 244 245 247 247 250 252 254 255 252 247 243 238 238 240 235 236 240 241 244 245 249 257 261
205 208 209 208 207 208 213 216 218 219 221 224 227 231 233 236 238 239 241 244 245 246 245 247 249 250 252 251 247 242 236 237 239 235 236 240 242 243 244 249 258 262
204 207 208 208 207 211 215 217 218 220 222 223 226 230 232 234 236 239 242 244 245 244 245 245 247 248 249 249 248 243 237 237 239 237 240 243 245 246 245 246 254 258
204 205 207 207 206 210 214 215 217 221 223 223 225 229 232 233 236 239 241 244 244 244 246 246 248 249 248 248 248 246 243 239 238 239 241 243 245 246 245 245 249 252
201 202 204 205 205 209 212 213 215 219 222 225 225 227 231 234 236 238 240 243 243 244 246 247 248 249 247 248 249 249 247 244 245 245 242 244 247 248 250 250 249 249
199 200 200 202 205 208 211 212 212 214 219 224 224 222 227 234 236 236 238 241 241 243 246 247 248 248 248 248 250 251 250 249 250 251 249 251 254 255 256 255 252 252
199 199 199 202 205 208 210 210 209 209 214 221 221 219 223 230 234 234 235 238 240 241 244 246 247 247 247 249 250 251 252 251 252 254 255 257 259 261 261 260 259 258
198 198 200 202 204 206 208 207 207 208 211 217 219 218 220 224 229 232 233 236 239 240 242 245 247 247 248 250 249 250 253 254 253 255 257 259 260 261 262 263 264 263
196 198 200 202 203 205 205 205 207 208 210 215 218 218 219 221 223 227 232 236 238 239 240 243 245 246 247 249 249 248 251 253 253 254 255 258 259 260 260 261 263 263
197 199 200 201 202 205 206 205 205 208 210 214 217 218 220 221 220 222 228 233 235 236 238 240 242 244 245 247 248 247 248 250 252 252 251 253 257 259 259 259 260 260
200 200 201 201 202 207 209 206 205 208 210 213 217 220 220 221 221 220 222 227 229 232 234 235 237 241 242 243 244 245 246 246 247 249 250 250 253 256 258 259 260 258
202 202 202 202 204 208 210 209 208 209 211 214 218 221 221 220 220 219 220 222 224 226 229 231 234 239 242 243 243 243 243 242 243 247 250 250 251 253 255 258 259 258
202 202 203 203 206 209 210 212 212 212 214 217 219 221 221 220 219 219 220 222 223 224 225 227 233 240 243 245 245 244 242 240 240 245 248 250 250 251 254 256 257 257
199 200 202 203 206 208 210 213 214 214 217 218 218 220 220 219 219 220 222 224 223 224 225 226 232 241 245 246 247 246 244 240 239 240 243 246 247 247 251 253 254 255
196 197 200 202 205 208 210 212 213 213 215 216 216 219 219 219 221 221 223 224 223 224 226 227 232 240 245 247 247 247 246 243 240 239 240 243 244 246 248 250 251 253
195 196 199 201 204 207 207 208 210 211 213 214 216 217 217 219 220 220 222 224 224 226 228 230 233 238 244 247 247 246 246 244 242 240 241 243 245 246 248 249 250 251
195 197 198 200 203 205 205 207 209 210 211 213 214 215 217 219 220 221 223 225 226 227 229 232 236 239 242 245 247 246 245 244 244 242 242 244 246 247 248 250 251 252
195 196 198 199 200 202 204 205 206 209 211 212 213 215 218 219 221 222 223 225 226 227 229 233 237 239 242 244 246 246 243 241 242 243 243 244 246 247 249 251 253 253
194 195 197 198 198 200 202 204 206 209 211 211 212 214 216 218 220 222 223 225 227 226 227 232 236 240 242 243 245 244 240 239 240 241 242 243 245 248 250 252 254 254
194 195 197 197 198 200 202 204 206 209 211 211 211 214 217 219 221 223 224 225 227 226 227 231 236 240 243 244 244 242 239 238 239 239 240 242 245 249 251 253 256 258
194 196 197 198 199 201 203 205 207 210 211 210 212 214 217 220 221 222 224 225 226 228 230 233 236 239 243 244 244 242 239 238 237 237 237 239 243 247 251 253 257 260
195 196 198 200 201 203 205 206 208 209 209 209 210 213 217 220 221 221 224 226 228 229 231 234 235 237 241 244 244 242 239 237 235 233 233 236 239 242 247 250 253 256
Height
818 820 822 825 827 829 831 832 835 837 838 840 842 844 845 847 849 850 852 853 854 855 856 858 859 860 862 863 864 865 866 867 868 868 869 870 870 871 871 871 872 873
815 817 820 822 824 826 828 830 832 834 836 838 840 842 843 845 847 848 850 851 852 854 855 856 857 858 860 861 862 864 865 865 866 867 867 868 869 869 870 870 871 871
812 814 817 819 821 823 826 828 830 832 834 836 838 840 841 843 845 846 848 849 850 852 853 854 855 856 858 859 861 862 863 864 864 865 865 866 867 868 868 869 869 870
809 811 814 816 818 821 824 826 828 830 832 834 835 837 839 841 843 844 846 847 848 850 851 852 853 854 856 857 859 860 861 862 862 863 864 864 865 866 866 867 867 868
806 808 811 814 816 819 821 823 825 827 829 831 833 835 837 838 840 842 843 844 846 847 849 850 851 852 854 855 856 858 859 860 860 861 862 862 863 863 864 865 865 866
802 805 808 811 813 816 817 819 822 824 826 828 830 832 834 836 838 839 841 842 843 845 846 848 849 850 851 853 854 855 857 858 858 859 859 860 860 861 862 863 863 864
798 801 805 808 810 813 814 816 819 821 823 826 827 829 831 833 835 836 838 840 841 843 844 845 846 848 849 850 852 853 854 856 856 857 857 857 858 859 859 860 861 862
795 798 801 804 807 810 811 814 816 818 820 823 825 827 828 830 832 833 835 837 838 840 841 843 844 845 847 848 849 851 852 853 854 854 855 855 856 856 857 858 859 859
792 795 798 801 804 806 808 811 813 815 817 820 822 824 825 827 829 831 832 834 835 837 838 840 841 842 844 845 846 848 849 850 851 851 852 853 853 853 854 855 856 857
788 791 794 797 800 803 805 807 810 812 814 816 819 821 822 824 826 828 829 831 832 834 835 837 838 839 841 843 844 845 846 847 848 849 849 850 850 851 852 853 854 854
785 788 791 793 796 799 801 804 807 809 811 813 815 818 819 821 822 824 826 827 829 831 832 833 835 837 838 839 841 842 843 844 845 846 846 847 847 848 849 850 850 851
781 783 786 789 792 794 797 800 803 806 807 809 811 814 816 817 819 820 822 824 825 827 829 830 832 833 835 836 838 839 840 841 842 843 843 844 844 845 846 847 847 848
776 779 782 784 787 790 793 796 799 802 804 806 808 810 812 814 815 817 818 820 822 823 825 827 828 830 832 833 835 836 837 838 839 840 840 841 841 842 843 844 844 845
771 774 777 780 783 786 789 792 795 798 800 802 804 806 808 810 812 813 815 816 818 820 822 824 825 827 828 829 831 833 834 835 836 837 837 838 838 839 840 841 841 843
766 770 773 777 779 782 785 788 791 793 796 798 800 802 804 806 808 810 812 813 815 817 819 820 822 823 824 825 827 829 830 832 833 834 834 835 836 836 837 837 838 839
763 766 770 773 776 778 781 784 787 790 792 794 796 798 801 803 805 807 808 810 811 813 815 817 818 818 819 821 823 825 827 829 830 830 831 832 833 833 834 834 835 836
759 763 766 769 772 775 778 781 784 787 789 791 793 795 797 799 801 803 805 807 808 810 811 812 813 814 815 817 819 821 824 826 827 828 828 829 830 830 830 831 832 832
756 759 763 766 769 772 775 778 781 783 785 787 789 791 793 795 797 799 801 803 805 806 807 808 809 809 811 813 815 817 820 822 824 825 826 826 826 827 827 828 828 829
753 756 759 762 765 768 771 774 777 779 781 783 786 788 790 792 794 796 798 799 801 802 803 805 805 806 807 809 811 814 816 819 821 822 823 823 823 823 824 824 825 826
750 752 755 758 761 764 767 770 772 775 777 780 782 785 786 788 790 793 794 795 797 799 800 801 802 802 803 805 807 810 812 815 817 818 819 819 819 820 820 820 821 822
746 749 752 755 758 761 764 766 769 771 774 776 779 781 783 784 787 789 790 792 793 795 796 797 798 799 800 802 804 806 809 811 813 814 815 815 815 816 816 817 818 819
742 745 748 751 754 757 760 763 765 768 770 773 775 778 780 781 783 785 786 788 789 791 793 793 794 795 797 798 800 803 805 808 809 810 811 811 811 812 812 813 813 814
738 742 745 748 751 753 756 759 761 764 767 769 772 774 776 778 779 781 783 784 785 787 789 789 790 791 793 795 797 799 802 804 804 805 806 807 807 807 808 808 809 810
735 738 741 744 747 749 752 755 758 760 763 765 768 770 772 774 776 777 779 780 782 783 784 785 786 787 789 791 793 795 798 799 801 802 802 803 803 803 804 804 804 805
732 735 737 740 743 746 749 751 754 756 759 761 764 766 769 771 772 774 775 776 777 779 780 781 782 783 785 787 788 791 793 795 797 798 798 799 799 800 800 800 800 800
728 731 734 736 739 742 744 747 750 752 755 758 760 763 765 767 768 770 771 772 773 775 776 777 778 779 781 782 784 786 788 790 793 794 794 795 795 796 796 796 796 796